Tracking 30995 objects as of 5-Jul-2025
HD Live streaming from Space Station
objects crossing your sky now

SL-12 R/B(2)

Track SL-12 R/B(2) now!


NORAD ID: 26557
Int'l Code: 2000-059D
Perigee: 7,206.3 km
Apogee: 35,783.1 km
Inclination: 14.6 °
Period: 771.5 minutes
Semi major axis: 27865 km
RCS: 24.2849 m2 (large)
Launch date: October 1, 2000
Source: Commonwealth of Independent States (former USSR) (CIS)
Launch site: TYURATAM MISSILE AND SPACE COMPLEX (TTMTR)

Note: This is a ROCKET BODY
Your satellite tracking list
Your tracking list is empty




NASA's NSSDC Master Catalog

Two Line Element Set (TLE):
1 26557U 00059D   25186.55808911 -.00000152  00000-0  00000+0 0  9996
2 26557  14.6122 111.8729 5127602 359.7337 184.2690  1.86637410168823
Source of the keplerian elements: AFSPC